Silver Bay, MN

6:18 AM CDT on April 20, 2018 (GMT -0500)
Silver Bay Municipal

Weather History for KBFW - September, 2012

Change the Weather History Date:

Monday, September 17, 2012

  Actual Average Record
Temperature  
Mean Temperature 42 °F -  
Max Temperature 57 °F 62 °F 77 °F (2003)
Min Temperature 28 °F 40 °F 26 °F (2011)
Degree Days  
Heating Degree Days 22    
Moisture  
Dew Point 32 °F    
Average Humidity 59    
Maximum Humidity 93    
Minimum Humidity 26    
Precipitation  
Precipitation 0.05 in - - ()
Sea Level Pressure  
Sea Level Pressure 29.92 in    
Wind  
Wind Speed 2 mph (North)    
Max Wind Speed 13 mph    
Max Gust Speed 20 mph    
Visibility 10 miles    
Events Rain    
Averages and records for this station are not official NWS values.
T = Trace of Precipitation, MM = Missing Value Source: NWS Daily Summary

Daily Weather History Graph

Daily Weather History Graph

Search for Another Location

Airport or City:

Astronomy

Sep. 17, 2012 Rise Set
Actual Time 6:46 AM CDT 7:12 PM CDT
Civil Twilight 6:15 AM CDT 7:43 PM CDT
Nautical Twilight 5:39 AM CDT 8:19 PM CDT
Astronomical Twilight 5:01 AM CDT 8:56 PM CDT
Moon 8:47 AM CDT (9/17) 7:41 PM CDT (9/17)
Length of Visible Light 13h 27m
Length of Day
12h 26m
Waxing Crescent, 3% of the Moon is Illuminated
Sep 17
Waxing Crescent
Sep 22
First Quarter
Sep 29
Full
Oct 8
Last Quarter
Oct 15
New

Hourly Weather History & Observations

Time (CDT) Temp. Windchill Dew Point Humidity Pressure Visibility Wind Dir Wind Speed Gust Speed Precip Events Conditions
12:17 AM 53.6 °F - 42.8 °F 67% 29.92 in 10.0 mi Calm Calm - N/A Rain Rain
12:37 AM 51.8 °F - 42.8 °F 71% 29.92 in 10.0 mi Calm Calm - 0.01 in Rain Rain
12:57 AM 51.8 °F - 44.6 °F 76% 29.92 in 10.0 mi Calm Calm - 0.01 in Rain Rain
1:17 AM 51.8 °F - 46.4 °F 82% 29.92 in 10.0 mi Calm Calm - 0.02 in Rain Rain
1:37 AM 50.0 °F - 46.4 °F 87% 29.91 in 10.0 mi Calm Calm - 0.02 in   Drizzle
1:58 AM 50.0 °F - 44.6 °F 82% 29.91 in 10.0 mi Calm Calm - 0.01 in Rain Rain
2:17 AM 50.0 °F - 46.4 °F 87% 29.89 in 10.0 mi Calm Calm - 0.01 in Rain Rain
2:37 AM 50.0 °F - 44.6 °F 82% 29.88 in 10.0 mi Calm Calm - 0.01 in   Light Drizzle
2:57 AM 48.2 °F - 44.6 °F 87% 29.88 in 10.0 mi Calm Calm - N/A   Overcast
3:17 AM 48.2 °F - 44.6 °F 87% 29.89 in 10.0 mi Calm Calm - N/A   Scattered Clouds
3:37 AM 48.2 °F - 44.6 °F 87% 29.88 in 10.0 mi Calm Calm - 0.01 in   Scattered Clouds
3:57 AM 48.2 °F - 44.6 °F 87% 29.89 in 10.0 mi Calm Calm - N/A   Scattered Clouds
4:17 AM 48.2 °F - 44.6 °F 87% 29.89 in 10.0 mi Calm Calm - N/A   Scattered Clouds
4:37 AM 48.2 °F - 42.8 °F 82% 29.89 in 10.0 mi Calm Calm - N/A   Overcast
4:57 AM 48.2 °F - 42.8 °F 82% 29.91 in 10.0 mi Calm Calm - N/A   Scattered Clouds
5:17 AM 48.2 °F - 42.8 °F 82% 29.91 in 10.0 mi Calm Calm - N/A   Clear
5:37 AM 46.4 °F - 42.8 °F 87% 29.90 in 10.0 mi Calm Calm - N/A   Mostly Cloudy
5:57 AM 46.4 °F - 42.8 °F 87% 29.91 in 10.0 mi Calm Calm - N/A   Scattered Clouds
6:17 AM 46.4 °F 45.2 °F 41.0 °F 81% 29.91 in 10.0 mi North 3.5 mph - N/A   Scattered Clouds
6:37 AM 46.4 °F 45.2 °F 39.2 °F 76% 29.91 in 10.0 mi NNW 3.5 mph - N/A   Scattered Clouds
6:57 AM 46.4 °F 45.2 °F 39.2 °F 76% 29.92 in 10.0 mi NNW 3.5 mph - N/A   Clear
7:17 AM 44.6 °F 41.4 °F 37.4 °F 76% 29.92 in 10.0 mi North 5.8 mph - N/A   Clear
7:37 AM 44.6 °F 40.7 °F 37.4 °F 76% 29.92 in 10.0 mi NNW 6.9 mph - N/A   Clear
7:57 AM 44.6 °F 41.4 °F 37.4 °F 76% 29.92 in 10.0 mi NNW 5.8 mph - N/A   Clear
8:17 AM 44.6 °F 40.7 °F 37.4 °F 76% 29.92 in 10.0 mi NNW 6.9 mph - N/A   Clear
8:37 AM 46.4 °F 42.4 °F 37.4 °F 71% 29.92 in 10.0 mi NNW 8.1 mph - N/A   Clear
8:57 AM 48.2 °F - 37.4 °F 66% 29.92 in 10.0 mi North 5.8 mph - N/A   Clear
9:17 AM 51.8 °F - 37.4 °F 58% 29.92 in 10.0 mi NNW 6.9 mph - N/A   Clear
9:37 AM 53.6 °F - 35.6 °F 51% 29.92 in 10.0 mi NNW 6.9 mph 16.1 mph N/A   Clear
9:57 AM 53.6 °F - 32.0 °F 44% 29.92 in 10.0 mi NNW 6.9 mph 16.1 mph N/A   Clear
10:17 AM 55.4 °F - 30.2 °F 38% 29.92 in 10.0 mi North 8.1 mph - N/A   Clear
10:37 AM 55.4 °F - 28.4 °F 36% 29.92 in 10.0 mi North 8.1 mph - N/A   Clear
10:57 AM 55.4 °F - 28.4 °F 36% 29.92 in 10.0 mi North 4.6 mph - N/A   Clear
11:17 AM 57.2 °F - 26.6 °F 31% 29.92 in 10.0 mi NNW 4.6 mph - N/A   Clear
11:37 AM 57.2 °F - 26.6 °F 31% 29.92 in 10.0 mi NNW 9.2 mph 17.3 mph N/A   Clear
11:57 AM 57.2 °F - 26.6 °F 31% 29.93 in 10.0 mi NNW 5.8 mph - N/A   Clear
12:18 PM 55.4 °F - 28.4 °F 36% 29.93 in 10.0 mi North 5.8 mph 16.1 mph N/A   Scattered Clouds
12:37 PM 53.6 °F - 28.4 °F 38% 29.93 in 10.0 mi North 6.9 mph - N/A   Scattered Clouds
12:57 PM 53.6 °F - 26.6 °F 35% 29.92 in 10.0 mi NNW 4.6 mph - N/A   Scattered Clouds
1:17 PM 55.4 °F - 26.6 °F 33% 29.93 in 10.0 mi WNW 8.1 mph 17.3 mph N/A   Clear
1:37 PM 53.6 °F - 28.4 °F 38% 29.93 in 10.0 mi North 9.2 mph - N/A   Scattered Clouds
1:57 PM 55.4 °F - 26.6 °F 33% 29.92 in 10.0 mi North 8.1 mph - N/A   Scattered Clouds
2:17 PM 55.4 °F - 24.8 °F 31% 29.92 in 10.0 mi North 8.1 mph - N/A   Scattered Clouds
2:37 PM 55.4 °F - 23.0 °F 29% 29.92 in 10.0 mi North 8.1 mph 19.6 mph N/A   Scattered Clouds
2:57 PM 53.6 °F - 23.0 °F 30% 29.93 in 10.0 mi North 10.4 mph 17.3 mph N/A   Scattered Clouds
3:17 PM 53.6 °F - 23.0 °F 30% 29.93 in 10.0 mi North 6.9 mph - N/A   Mostly Cloudy
3:37 PM 53.6 °F - 24.8 °F 33% 29.93 in 10.0 mi NNW 9.2 mph 17.3 mph N/A   Mostly Cloudy
3:57 PM 51.8 °F - 23.0 °F 33% 29.94 in 10.0 mi NNW 12.7 mph 17.3 mph N/A   Mostly Cloudy
4:17 PM 51.8 °F - 23.0 °F 33% 29.93 in 10.0 mi North 4.6 mph - N/A   Overcast
4:37 PM 53.6 °F - 23.0 °F 30% 29.93 in 10.0 mi NNE 6.9 mph - N/A   Scattered Clouds
4:57 PM 53.6 °F - 21.2 °F 28% 29.92 in 10.0 mi NNW 3.5 mph - N/A   Scattered Clouds
5:17 PM 55.4 °F - 21.2 °F 26% 29.92 in 10.0 mi North 8.1 mph - N/A   Scattered Clouds
5:37 PM 53.6 °F - 21.2 °F 28% 29.93 in 10.0 mi NNE 5.8 mph - N/A   Scattered Clouds
5:57 PM 53.6 °F - 21.2 °F 28% 29.93 in 10.0 mi North 3.5 mph - N/A   Clear
6:17 PM 51.8 °F - 24.8 °F 35% 29.93 in 10.0 mi Calm Calm - N/A   Scattered Clouds
6:37 PM 48.2 °F - 24.8 °F 40% 29.94 in 10.0 mi Calm Calm - N/A   Scattered Clouds
6:57 PM 48.2 °F - 24.8 °F 40% 29.94 in 10.0 mi Calm Calm - N/A   Mostly Cloudy
7:17 PM 46.4 °F - 24.8 °F 43% 29.94 in 10.0 mi Calm Calm - N/A   Scattered Clouds
7:37 PM 44.6 °F - 24.8 °F 46% 29.95 in 10.0 mi Calm Calm - N/A   Clear
7:57 PM 42.8 °F - 26.6 °F 53% 29.95 in 10.0 mi Calm Calm - N/A   Scattered Clouds
8:17 PM 42.8 °F 41.1 °F 26.6 °F 53% 29.95 in 10.0 mi NNW 3.5 mph - N/A   Mostly Cloudy
8:37 PM 42.8 °F - 28.4 °F 57% 29.95 in 10.0 mi Calm Calm - N/A   Scattered Clouds
8:57 PM 39.2 °F - 28.4 °F 65% 29.95 in 10.0 mi Calm Calm - N/A   Clear
9:17 PM 35.6 °F - 26.6 °F 70% 29.95 in 10.0 mi Calm Calm - N/A   Clear
9:37 PM 33.8 °F - 26.6 °F 75% 29.95 in 7.0 mi Calm Calm - N/A   Clear
9:57 PM 33.8 °F - 26.6 °F 75% 29.95 in 10.0 mi Calm Calm - N/A   Clear
10:17 PM 32.0 °F - 26.6 °F 80% 29.95 in 10.0 mi Calm Calm - N/A   Scattered Clouds
10:37 PM 30.2 °F - 26.6 °F 86% 29.96 in 10.0 mi Calm Calm - N/A   Scattered Clouds
11:17 PM 28.4 °F - 24.8 °F 86% 29.96 in 10.0 mi Calm Calm - N/A   Clear
11:37 PM 28.4 °F 24.6 °F 26.6 °F 93% 29.96 in 10.0 mi North 3.5 mph - N/A   Scattered Clouds
11:57 PM 30.2 °F - 26.6 °F 86% 29.96 in 10.0 mi Calm Calm - N/A   Clear